Simultaneous Nadir Overpasses (SNOs) Predictions

Prediction of SNOs between AQUA and NPP Satellite Orbit:

Table of predicted SNOs for the next 14.0 days since TLE Epoch: 7/13/2024
Index Date (AQUA) Time (AQUA) Lat,Lon (AQUA) SZA (AQUA ) Date (NPP) Time (NPP) Lat,Lon (NPP) SZA (NPP ) Distance(km) Time Diff (sec)
1 07/13/2024 19:25:46 -81.26, -7.01 113.37 07/13/2024 19:25:31 -81.26, -7.17 113.34 2.70 15
2 07/13/2024 20:15:06 81.28, 161.10 66.58 07/13/2024 20:16:14 81.27, 160.99 66.55 1.95 68
3 07/16/2024 07:29:11 81.27, -7.69 67.01 07/16/2024 07:28:44 81.26, -7.70 67.03 0.26 27
4 07/16/2024 08:18:33 -81.27, 160.12 113.01 07/16/2024 08:19:28 -81.27, 159.94 113.02 3.02 55
5 07/18/2024 19:32:37 -81.26, -8.68 112.53 07/18/2024 19:31:58 -81.26, -8.78 112.49 1.71 39
6 07/18/2024 20:21:57 81.28, 159.36 67.42 07/18/2024 20:22:41 81.27, 159.34 67.40 0.32 44
7 07/21/2024 07:36:00 81.25, -9.52 67.94 07/21/2024 07:35:11 81.26, -9.46 67.97 1.29 49
8 07/21/2024 08:25:22 -81.26, 158.33 112.08 07/21/2024 08:25:55 -81.27, 158.23 112.09 1.84 33
9 07/23/2024 19:39:23 -81.26, -10.19 111.58 07/23/2024 19:38:24 -81.26, -10.22 111.54 0.54 59
10 07/23/2024 20:28:43 81.28, 157.79 68.39 07/23/2024 20:29:07 81.27, 157.86 68.36 1.15 24
11 07/26/2024 07:42:43 81.27, -10.80 68.93 07/26/2024 07:41:36 81.27, -10.67 68.95 2.19 67



Historial Predications of SNOs between AQUA and NPP
